User: anonymous   Login
Location: Unspecified
(0.0000°N, 0.0000°E)
Time: 14:13:57
(UTC+00:00)
Language:

SWISSCUBE - Orbit

View from above orbital plane
View from above orbital plane
View from above satellite
View from above satellite

Ground track
Ground track

The orbit data is extracted from the following two-line orbital elements,

1 35932U 09051B   15024.19318282  .00000672  00000-0  16672-3 0  5157
2 35932 098.3933 142.1499 0008546 068.6751 291.5357 14.55044192283027
Epoch (UTC): 24 January 2015 04:38:10
Eccentricity: 0.0008546
inclination: 98.3933°
perigee height: 703 km
apogee height: 715 km
right ascension of ascending node: 142.1499°
argument of perigee: 68.6751°
revolutions per day: 14.55044192
mean anomaly at epoch: 291.5357°
orbit number at epoch: 28302

The dashed part of the orbit path shows where the satellite is in the earth's shadow,  

DLR